Retour au catalogue

FENGYUN 1C DEB

ActifPO
NORAD 41003·DEBRIS·🇨🇳 China

Lancé May 10, 1999 depuis Taiyuan Satellite Launch Center

Loading…

Prochains Passages (prochaines 24 heures)

TLE

FraisSource: Space-Track

Époque: Sep 12, 2026, 03:36 UTC

1 41003U 99025EXH 26255.15013377  .00021796  00000-0  23021-2 0  9995
2 41003  98.9674 211.4068 0053835 144.1292 216.3556 14.88192138564673

Suivez FENGYUN 1C DEB en temps réel avec AllMySat

Download on the App Store